User: anonymous   Login
Location: Del Amo
(33.8464°N, 118.2104°W)
Time: 17:18:07
(UTC+00:00)
Language:

ITUPSAT 1 - Orbit

View from above orbital plane
View from above orbital plane
View from above satellite
View from above satellite

Ground track
Ground track

The orbit data is extracted from the following two-line orbital elements,

1 35935U 09051E   24281.11305230  .00005656  00000-0  12308-2 0  9990
2 35935  98.4548 167.0898 0007965   3.4179 356.7072 14.58355101798608
Epoch (UTC): 07 October 2024 02:42:47
Eccentricity: 0.0007965
inclination: 98.4548°
perigee height: 693 km
apogee height: 704 km
right ascension of ascending node: 167.0898°
argument of perigee: 3.4179°
revolutions per day: 14.58355101
mean anomaly at epoch: 356.7072°
orbit number at epoch: 79860

The dashed part of the orbit path shows where the satellite is in the earth's shadow,  

DLR